DW2959 Murcia ES current weather conditions

sailwx.info

Wind from 287 at 6 knots

Air temperature 11.7° C
Dewpoint -2.9° C

Last reported at 2015-Mar-05 09:44 UTC.
Time now 2015-Mar-05 10:26 UTC

Location: N 38°00' W 001°02'.
View on Google Maps.

See reports from other nearby stations

  
Tides and Currents Weather Stations Pressure Air Temp Water Temp Dewpoint Dewpoint Depression Visibility Wind Speed Wind Dir Waves Ship Positions
date/time (UTC)wind fromknots sea level pressurealtimeterstation pressurevisibilityair tempwater tempwave heightnotes
2015-Mar-05 09:44 287 6 11.7
2015-Mar-05 09:29 273 6 11.7
2015-Mar-05 09:14 277 5 11.7
2015-Mar-05 08:59 267 4 11.1
2015-Mar-05 08:44 279 4 11.1
2015-Mar-05 08:28 284 3 10.6
2015-Mar-05 08:13 237 3 10.0
2015-Mar-05 07:58 262 0 8.9
2015-Mar-05 07:43 266 2 8.3
2015-Mar-05 07:28 255 1 7.8
2015-Mar-05 07:13
2015-Mar-05 06:58
2015-Mar-05 06:43
2015-Mar-05 06:28
2015-Mar-05 06:13
2015-Mar-05 05:58
2015-Mar-05 05:43
2015-Mar-05 05:28
2015-Mar-05 05:13
2015-Mar-05 04:57
2015-Mar-05 04:42
2015-Mar-05 04:27
2015-Mar-05 04:12
2015-Mar-05 03:57
2015-Mar-05 03:42
2015-Mar-05 03:27
2015-Mar-05 03:12
2015-Mar-05 02:57
2015-Mar-05 02:42
2015-Mar-05 02:27
2015-Mar-05 02:12
2015-Mar-05 01:57 247 1 9.4
2015-Mar-05 01:42 302 3 10.0
2015-Mar-05 01:27 338 0 10.6
2015-Mar-05 01:12 338 1 10.6
2015-Mar-05 00:56 244 2 10.0
2015-Mar-05 00:41 132 0 9.4
2015-Mar-05 00:26 107 9.4
2015-Mar-05 00:11 105 1 9.4
2015-Mar-04 23:56 105 10.0
2015-Mar-04 23:41 105 10.6
2015-Mar-04 23:26 105 10.0
2015-Mar-04 23:11 105 10.6
2015-Mar-04 22:56 104 10.6
2015-Mar-04 22:41 104 10.6
2015-Mar-04 22:26 105 11.1
2015-Mar-04 22:11 105 11.1
2015-Mar-04 21:56 105 11.1
2015-Mar-04 21:41 105 11.7
2015-Mar-04 21:26 105 11.7
2015-Mar-04 21:11 105 12.2
2015-Mar-04 20:56 105 12.2
2015-Mar-04 20:41 105 12.8
2015-Mar-04 20:26 105 13.3
2015-Mar-04 20:11 105 13.3
2015-Mar-04 19:56 105 13.3
2015-Mar-04 19:41 105 13.9
2015-Mar-04 19:26 105 13.9
2015-Mar-04 19:11 104 1 14.4
2015-Mar-04 18:56 098 2 14.4
2015-Mar-04 18:41 105 3 14.4
2015-Mar-04 18:26 126 2 15.0
2015-Mar-04 18:11 103 4 15.0
2015-Mar-04 17:56 100 6 15.6
2015-Mar-04 17:41 093 6 16.1
2015-Mar-04 17:26 075 7 17.2
2015-Mar-04 17:11 113 6 17.8
2015-Mar-04 16:56 108 6 18.9
2015-Mar-04 16:41 080 7 19.4
2015-Mar-04 16:26 092 6 20.0
2015-Mar-04 16:11 082 6 20.6
2015-Mar-04 15:56 109 5 21.7
2015-Mar-04 15:41 093 6 22.8
2015-Mar-04 15:26 050 6 23.9
2015-Mar-04 15:11 009 3 24.4
2015-Mar-04 14:55 047 0 23.9
2015-Mar-04 14:40 090 1 23.3
2015-Mar-04 14:25 095 1 23.3
2015-Mar-04 14:10 067 1 22.8
2015-Mar-04 13:55 095 3 22.8
2015-Mar-04 13:40 062 0 23.3
2015-Mar-04 13:25 076 1 23.3
2015-Mar-04 13:10 073 1 22.8
2015-Mar-04 12:55 068 3 22.8
2015-Mar-04 12:40 032 6 22.8
2015-Mar-04 12:25 058 3 22.2
2015-Mar-04 12:10 033 3 22.8
2015-Mar-04 11:55 013 1 22.2
2015-Mar-04 11:40 012 1 21.7
2015-Mar-04 11:25 011 1 20.6
2015-Mar-04 11:10 288 1 20.0
2015-Mar-04 10:55 078 18.3
2015-Mar-04 10:40 013 0 16.7
2015-Mar-04 10:25 013 0 15.0
2015-Mar-04 10:10 013 0 13.9
2015-Mar-04 09:55 005 1 13.3
2015-Mar-04 09:40 321 0 13.3
2015-Mar-04 09:25 321 0 12.2
2015-Mar-04 09:10 298 0 12.2
2015-Mar-04 08:55 223 11.7
2015-Mar-04 08:39 224 11.1
2015-Mar-04 08:24 224 11.1
2015-Mar-04 08:09 225 0 10.6
2015-Mar-04 07:54 224 10.6
2015-Mar-04 07:39 224 10.6
2015-Mar-04 07:24 224 10.6
2015-Mar-04 07:09
2015-Mar-04 06:54
2015-Mar-04 06:39
2015-Mar-04 06:24
2015-Mar-04 06:09
2015-Mar-04 05:54
2015-Mar-04 05:39
2015-Mar-04 05:24
2015-Mar-04 05:09
2015-Mar-04 04:54
2015-Mar-04 04:38
2015-Mar-04 04:23
2015-Mar-04 04:08
2015-Mar-04 03:53
2015-Mar-04 03:38
2015-Mar-04 03:23
2015-Mar-04 03:08
2015-Mar-04 02:53
2015-Mar-04 02:38
2015-Mar-04 02:23
2015-Mar-04 02:08 180 13.3
2015-Mar-04 01:53 180 13.3
2015-Mar-04 01:38 180 0 13.3
2015-Mar-04 01:23 120 13.3
2015-Mar-04 01:08 119 13.3
2015-Mar-04 00:53 119 13.3
2015-Mar-04 00:38 119 13.3
2015-Mar-04 00:23 119 13.3
2015-Mar-04 00:08 119 13.3
2015-Mar-03 23:53 119 13.3
2015-Mar-03 23:38 119 13.3
2015-Mar-03 23:23 119 13.3
2015-Mar-03 23:08 119 13.3
2015-Mar-03 22:53 119 13.3
2015-Mar-03 22:38 119 13.3
2015-Mar-03 22:23 119 13.3
2015-Mar-03 22:08 119 13.3
2015-Mar-03 21:53 119 13.3
2015-Mar-03 21:38 119 13.3
2015-Mar-03 21:23 118 0 13.3
2015-Mar-03 21:08 118 13.3
2015-Mar-03 20:53 118 13.3
2015-Mar-03 20:37 117 13.3
2015-Mar-03 20:22 113 13.3
2015-Mar-03 20:07 111 13.3
2015-Mar-03 19:52 111 0 13.3
2015-Mar-03 19:37 113 1 13.3
2015-Mar-03 19:22 100 2 13.3
2015-Mar-03 19:07 124 2 13.3
2015-Mar-03 18:52 091 4 13.3
2015-Mar-03 18:37 065 2 13.9
2015-Mar-03 18:22 106 5 13.9
2015-Mar-03 18:07 079 5 13.9
2015-Mar-03 17:52 080 3 14.4
2015-Mar-03 17:37 103 4 15.6
2015-Mar-03 17:22 105 4 16.7
2015-Mar-03 17:07 070 4 17.2
2015-Mar-03 16:52 082 4 17.8
2015-Mar-03 16:37 094 2 18.9
2015-Mar-03 16:22 083 4 19.4
2015-Mar-03 16:07 082 5 20.0
2015-Mar-03 15:53 081 4 20.6
2015-Mar-03 15:37 081 4 21.1
2015-Mar-03 15:22 090 5 21.1
2015-Mar-03 15:07 048 4 21.7
2015-Mar-03 14:52 051 4 22.2
2015-Mar-03 14:37 059 4 22.2
2015-Mar-03 14:22 074 5 22.2
2015-Mar-03 14:07 064 4 22.8
2015-Mar-03 13:52 076 3 22.8
2015-Mar-03 13:37 071 4 22.8
2015-Mar-03 13:22 094 4 23.3
2015-Mar-03 13:07 036 4 23.3
2015-Mar-03 12:52 071 4 23.3
2015-Mar-03 12:37 062 4 23.3
2015-Mar-03 12:22 065 5 23.3
2015-Mar-03 12:07 080 4 22.8
2015-Mar-03 11:52 065 2 22.8
2015-Mar-03 11:37 045 4 22.2
2015-Mar-03 11:22 052 1 22.8
2015-Mar-03 11:07 030 2 22.2
2015-Mar-03 10:52 041 1 21.7
2015-Mar-03 10:37 051 2 21.1
2015-Mar-03 10:22 044 3 21.1
2015-Mar-03 10:06 052 0 20.6